Time,TemperatureF,DewpointF,PressureIn,WindDirection,WindDirectionDegrees,WindSpeedMPH,WindSpeedGustMPH,Humidity,HourlyPrecipIn,Conditions,Clouds,dailyrainin,SoftwareType,DateUTC
2013-01-03 00:00:00,20.1,15.8,30.14,South,180,0.0,0.0,83,0.00,,---,0.00,VWS V14.01,2013-01-03 06:00:00,
2013-01-03 00:30:00,19.3,15.3,30.14,South,180,0.0,0.0,84,0.00,,---,0.00,VWS V14.01,2013-01-03 06:30:00,
2013-01-03 01:00:00,18.7,14.9,30.14,South,180,0.0,0.0,85,0.00,,---,0.00,VWS V14.01,2013-01-03 07:00:00,
2013-01-03 01:30:00,18.3,14.8,30.15,South,180,0.0,0.0,86,0.00,,---,0.00,VWS V14.01,2013-01-03 07:30:00,
2013-01-03 02:00:00,18.1,14.9,30.16,South,180,0.0,0.0,87,0.00,,---,0.00,VWS V14.01,2013-01-03 08:00:00,
2013-01-03 02:30:00,18.2,15.2,30.17,South,180,0.0,0.0,88,0.00,,---,0.00,VWS V14.01,2013-01-03 08:30:00,
2013-01-03 03:00:00,18.6,15.9,30.17,South,180,0.0,0.0,89,0.00,,---,0.00,VWS V14.01,2013-01-03 09:00:00,
2013-01-03 03:30:00,18.8,16.1,30.17,South,180,0.0,1.0,89,0.00,,---,0.00,VWS V14.01,2013-01-03 09:30:00,
2013-01-03 04:30:00,20.0,17.5,30.17,West,270,0.0,1.0,90,0.00,,---,0.00,VWS V14.01,2013-01-03 10:30:00,
2013-01-03 05:00:00,20.0,17.3,30.18,West,270,0.0,0.0,89,0.00,,---,0.00,VWS V14.01,2013-01-03 11:00:00,
2013-01-03 05:30:00,19.7,17.0,30.19,West,270,0.0,0.0,89,0.00,,---,0.00,VWS V14.01,2013-01-03 11:30:00,
2013-01-03 06:00:00,19.4,16.7,30.20,West,270,0.0,0.0,89,0.00,,---,0.00,VWS V14.01,2013-01-03 12:00:00,
2013-01-03 06:30:00,19.1,16.4,30.21,West,270,0.0,0.0,89,0.00,,---,0.00,VWS V14.01,2013-01-03 12:30:00,
2013-01-03 07:00:00,18.9,16.2,30.22,West,270,0.0,0.0,89,0.00,,---,0.00,VWS V14.01,2013-01-03 13:00:00,
2013-01-03 07:30:00,18.7,16.3,30.23,West,270,0.0,0.0,90,0.00,,---,0.00,VWS V14.01,2013-01-03 13:30:00,
2013-01-03 08:00:00,18.7,16.3,30.24,West,270,0.0,0.0,90,0.00,,---,0.00,VWS V14.01,2013-01-03 14:00:00,
2013-01-03 08:30:00,19.8,17.6,30.25,West,270,0.0,0.0,91,0.00,,---,0.00,VWS V14.01,2013-01-03 14:30:00,
2013-01-03 09:00:00,25.2,22.1,30.26,West,270,0.0,1.0,88,0.00,,---,0.00,VWS V14.01,2013-01-03 15:00:00,
2013-01-03 09:30:00,28.5,24.0,30.28,WSW,248,0.0,3.0,83,0.00,,---,0.00,VWS V14.01,2013-01-03 15:30:00,
2013-01-03 10:00:00,28.9,24.1,30.29,NW,315,2.0,9.0,82,0.00,,---,0.00,VWS V14.01,2013-01-03 16:00:00,
2013-01-03 10:30:00,31.7,25.6,30.29,NW,315,1.0,8.0,78,0.01,,---,0.01,VWS V14.01,2013-01-03 16:30:00,
2013-01-03 11:00:00,33.3,26.6,30.28,NW,315,1.0,4.0,76,0.01,,---,0.01,VWS V14.01,2013-01-03 17:00:00,
2013-01-03 11:30:00,36.9,28.7,30.27,SSW,202,1.0,5.0,72,0.01,,---,0.01,VWS V14.01,2013-01-03 17:30:00,
2013-01-03 12:00:00,37.2,28.7,30.26,NW,315,1.0,6.0,71,0.02,,---,0.03,VWS V14.01,2013-01-03 18:00:00,
2013-01-03 12:30:00,38.7,29.8,30.25,NW,315,1.0,6.0,70,0.04,,---,0.05,VWS V14.01,2013-01-03 18:30:00,
2013-01-03 13:00:00,39.8,29.4,30.24,NW,315,1.0,5.0,66,0.06,,---,0.07,VWS V14.01,2013-01-03 19:00:00,
2013-01-03 13:30:00,40.2,29.0,30.24,NW,315,1.0,7.0,64,0.05,,---,0.08,VWS V14.01,2013-01-03 19:30:00,
2013-01-03 14:00:00,39.8,28.2,30.24,NW,315,2.0,9.0,63,0.05,,---,0.10,VWS V14.01,2013-01-03 20:00:00,
2013-01-03 14:30:00,39.9,27.6,30.25,NW,315,2.0,9.0,61,0.04,,---,0.11,VWS V14.01,2013-01-03 20:30:00,
2013-01-03 15:00:00,39.2,27.3,30.26,NNW,338,1.0,8.0,62,0.03,,---,0.11,VWS V14.01,2013-01-03 21:00:00,
2013-01-03 15:30:00,38.7,27.2,30.26,NW,315,2.0,8.0,63,0.02,,---,0.12,VWS V14.01,2013-01-03 21:30:00,
2013-01-03 16:00:00,37.6,26.5,30.26,West,270,1.0,8.0,64,0.01,,---,0.12,VWS V14.01,2013-01-03 22:00:00,
2013-01-03 16:30:00,36.9,27.0,30.27,NW,315,1.0,7.0,67,0.01,,---,0.12,VWS V14.01,2013-01-03 22:30:00,
2013-01-03 17:00:00,36.1,26.2,30.27,West,270,0.0,4.0,67,0.00,,---,0.12,VWS V14.01,2013-01-03 23:00:00,
2013-01-03 17:30:00,35.0,25.9,30.28,West,270,0.0,1.0,69,0.00,,---,0.12,VWS V14.01,2013-01-03 23:30:00,
2013-01-03 18:00:00,33.5,25.5,30.29,West,270,0.0,0.0,72,0.00,,---,0.12,VWS V14.01,2013-01-04 00:00:00,
2013-01-03 18:30:00,32.8,25.8,30.29,West,270,0.0,0.0,75,0.00,,---,0.12,VWS V14.01,2013-01-04 00:30:00,
2013-01-03 19:00:00,33.7,26.3,30.30,SW,225,0.0,1.0,74,0.00,,---,0.12,VWS V14.01,2013-01-04 01:00:00,
2013-01-03 19:30:00,33.7,26.3,30.30,SW,225,0.0,0.0,74,0.00,,---,0.12,VWS V14.01,2013-01-04 01:30:00,
2013-01-03 20:00:00,33.7,26.6,30.31,WSW,248,0.0,3.0,75,0.00,,---,0.12,VWS V14.01,2013-01-04 02:00:00,
2013-01-03 20:30:00,33.7,26.6,30.31,West,270,0.0,2.0,75,0.00,,---,0.12,VWS V14.01,2013-01-04 02:30:00,
2013-01-03 21:00:00,33.2,26.5,30.30,West,270,0.0,0.0,76,0.00,,---,0.12,VWS V14.01,2013-01-04 03:00:00,
2013-01-03 21:30:00,32.0,25.9,30.31,West,270,0.0,0.0,78,0.00,,---,0.12,VWS V14.01,2013-01-04 03:30:00,
2013-01-03 22:00:00,30.7,25.3,30.30,West,270,0.0,0.0,80,0.00,,---,0.12,VWS V14.01,2013-01-04 04:00:00,
2013-01-03 22:30:00,29.1,24.6,30.31,West,270,0.0,0.0,83,0.00,,---,0.12,VWS V14.01,2013-01-04 04:30:00,
2013-01-03 23:00:00,28.7,24.5,30.31,West,270,0.0,2.0,84,0.00,,---,0.12,VWS V14.01,2013-01-04 05:00:00,
2013-01-03 23:30:00,29.1,24.6,30.31,West,270,0.0,1.0,83,0.00,,---,0.12,VWS V14.01,2013-01-04 05:30:00,